Regional Weather Roundup
Issued by NWS

Home | Current Version | Previous Version | Graphics & Text | Print | Product List | Glossary On
Versions: 1 2 3 4 5 6 7 8 9 10 11 12 13 14 15 16 17 18 19 20 21 22 23 24 25 26 27 28 29 30 31 32 33 34 35 36 37 38 39 40 41 42 43 44 45 46 47 48 49 50
000
ASUS43 KDMX 251703
RWRIA

WEATHER ROUNDUP FOR IOWA
NATIONAL WEATHER SERVICE DES MOINES IA
1200 PM CDT WED MAY 25 2016

NOTE: "FAIR" INDICATES FEW OR NO CLOUDS BELOW 12,000 FEET WITH NO
SIGNIFICANT WEATHER AND/OR OBSTRUCTIONS TO VISIBILITY.

* - THESE STATIONS ARE NOT NWS STATIONS...THUS NOT UNDER NWS
QUALITY CONTROL.  THEY ALSO DO NOT REPORT WEATHER SUCH
AS PRECIPITATION OR FOG.

IAZ001>003-012>014-020>022-031>034-043>046-251800-
   NORTHWEST IOWA

CITY           SKY/WX    TMP DP  RH WIND       PRES   REMARKS
CARROLL *      SUNNY     72  64  78 S18       29.84F
CHEROKEE *     CLOUDY    73  66  78 S9G18     29.85R
DENISON *      SUNNY     73  63  68 S14G22    29.82S
LE MARS *      PTSUNNY   73  63  68 SW14      29.84F
ORANGE CITY *  MOSUNNY   72  63  73 SW14      29.84S
SHELDON *      MOSUNNY   73  61  64 S20       29.82S
SIOUX CITY     CLOUDY    76  63  64 SW10      29.83F
SPENCER        CLOUDY    75  63  66 S15       29.84R
STORM LAKE *     N/A     73  63  68 S22       29.85R
$$

IAZ055>058-069>071-079>083-090>094-251800-
   SOUTHWEST IOWA

CITY           SKY/WX    TMP DP  RH WIND       PRES   REMARKS
ATLANTIC *     SUNNY     70  63  78 S14G21    29.85F
AUDUBON *      SUNNY     72  64  78 S14       29.87S
CLARINDA *       N/A     66  59  77 MISG      29.84F
COUNCIL BLFS * SUNNY     68  63  83 S6        29.84F
CRESTON *      SUNNY     68  61  77 SW14      29.91F
HARLAN  *      MOSUNNY   72  63  73 S12       29.87F
LAMONI         CLOUDY    71  65  81 S12       29.94R
RED OAK *      CLOUDY    68  61  77 VRB5G12   29.86F
SHENANDOAH *   CLOUDY    70  61  73 W10G17    29.84F
$$

IAZ047>049-059>061-072>074-084-251800-
   CENTRAL IOWA

CITY           SKY/WX    TMP DP  RH WIND       PRES   REMARKS
AMES           PTSUNNY   72  67  84 S12       29.87F
ANKENY *       PTSUNNY   73  70  88 S8        29.87S
BOONE *        PTSUNNY   72  66  83 S12       29.87R
CHARITON *     SUNNY     70  64  83 S9        29.90S
DES MOINES     CLOUDY    75  66  73 S12       29.87S
GRINNELL*      CLOUDY    70  64  83 S9        29.91F
KNOXVILLE *    CLOUDY    72  64  78 SW12      29.89R
MARSHALLTOWN   CLOUDY    69  65  86 SE12      29.88F
NEWTON *       CLOUDY    70  68  94 S14       29.89F
PELLA *        CLOUDY    73  65  75 S8        29.90F
PERRY *        PTSUNNY   75  68  78 S10       29.86F
$$

IAZ004>006-015-016-023>025-035-036-251800-
   NORTH CENTRAL IOWA

CITY           SKY/WX    TMP DP  RH WIND       PRES   REMARKS
ALGONA *       MOSUNNY   70  64  83 S14       29.83F
CLARION *      MOSUNNY   70  66  88 S17       29.86S
ESTHERVILLE    CLOUDY    73  63  70 S13       29.82R
FORT DODGE *   CLOUDY    70  63  78 S9G16     29.86S
MASON CITY     LGT RAIN  63  61  93 S15       29.87F
FOREST CITY *  RAIN      66  63  88 SE7       29.85F
WEBSTER CITY * CLOUDY    72  66  83 S13G18    29.85S
IOWA FALLS *   CLOUDY    68  64  88 SE7       29.89F
$$

IAZ007>011-017>019-026>030-037>042-050>054-066-251800-
   NORTHEAST IOWA

CITY           SKY/WX    TMP DP  RH WIND       PRES   REMARKS
CEDAR RAPIDS   CLOUDY    73  67  81 S9        29.91R
CHARLES CITY * CLOUDY    70  66  88 S17       29.89R
CLINTON *      CLOUDY    80  63  55 S15       29.93S HX  81
DECORAH *      CLOUDY    70  66  88 SE8       29.88F
DUBUQUE        CLOUDY    76  62  62 S17       29.93S
MONTICELLO *   PTSUNNY   81  61  50 SE20G28   29.90F HX  81
OELWEIN *      CLOUDY    73  64  73 S16G26    29.89S
WATERLOO       CLOUDY    68  64  87 S16G23    29.88S
$$

IAZ064-065-067-068-078-251800-
   EAST CENTRAL IOWA

CITY           SKY/WX    TMP DP  RH WIND       PRES   REMARKS
DAVENPORT      PTSUNNY   82  60  47 S16       29.92S HX  82
IOWA CITY      CLOUDY    76  67  73 S14G21    29.92S
MT. PLEASANT * CLOUDY    77  66  69 S9        29.93S
MUSCATINE *    CLOUDY    81  66  61 SE13G23   29.92S HX  83
QUAD CITIES    PTSUNNY   82  63  52 SE15      29.92R HX  83
$$

IAZ062-063-075>077-085>089-095>099-251800-
   SOUTHEAST IOWA

CITY           SKY/WX    TMP DP  RH WIND       PRES   REMARKS
BURLINGTON     PTSUNNY   76  67  73 S10       29.94R
FAIRFIELD *      N/A    N/A N/A N/A MISG        N/A
FORT MADISON * PTSUNNY   75  66  73 SW12      29.96R
KEOKUK *       MOSUNNY   75  66  73 SW8G14    29.94S
OSKALOOSA *      N/A     78  61  56 SW14      29.90F
OTTUMWA        MOSUNNY   76  62  62 S12       29.91S
WASHINGTON *   MOSUNNY   77  72  83 S14       29.93S
$$

ABBREVIATIONS USED IN REMARKS
   TC - TEMPERATURES IN CELSIUS
  WCI - WIND CHILL INDEX
   HX - HEAT INDEX
  VSB - VISIBILITY
$$





USA.gov is the U.S. government's official web portal to all federal, state and local government web resources and services.